Showing default

SZ-20, 63632

Orbit data source: Space-Track

SZ-20, 63632 is a payload satellite owned by ZZHGB (CN) in LEO that was launched on Thu, 24 Apr 2025 UTC via a CHANG ZHENG 2F launch vehicle from the Jiuquan Satellite Launch Center, China (JSC). Payload-class satellites include a variety of spacecraft equipped with specific instruments for various scientific and technological missions. These include communications satellites like Starlink; space stations such as the ISS; scientific satellites like the Hubble; Earth observation satellites from companies like Planet Labs, Umbra, and HawkEye 360; GPS; miniature CubeSats for education and research; and military/defense satellites.

Loading next visibility...
Identifier
63632, 2025-082A
Orbit
LEO
Country
Flag of CNCN / PRC
Related business
Manufacturer
CALT
Mission
Operational Civil Spaceship
Bus & Motor
SHENZHOU, Unknown motor
Mass
~8,100 kg wet, 3,258 kg dry
Launch date (UTC)
2025-04-24 (6 months ago)
Launch vehicle
CHANG ZHENG 2F
Launch site
Jiuquan Satellite Launch Center, China (JSC)
Object type
Payload
Rocket body
Debris
Shape & HBR
Cyl + 2 Pan, 8.5 m
Radar Cross Section
39.234 m², Medium (>0.1 m² and < 1m²)

Expand to show TLE details & history
Last TLE update: 1 day ago

TLE from 1 day ago
0 SZ-20
1 63632U 25082A   25302.20706547  .00041109  00000-0  47775-3 0  9998
2 63632  41.4665 287.2021 0010603 303.7055  56.2773 15.60898372255307
Epoch: 2025-10-29T04:58Z
TLE epoch observation values (Epoch: 2025-10-29T04:58:10.456Z)
Latitude
-0°
Longitude
174.87501°
Altitude
380.685 km
Speed
7.686 km/s
True Right ascension
19h 08m 48s
True Declination
0° 00' 00"
Sunlit
Object was in daylight at epoch
Visualization orbit readout
Latitude
Unknown
Longitude
Unknown
Altitude
Unknown
Speed
Unknown
Apparent Right ascension
Unknown
Apparent Declination
Unknown
Sunlit
N/A
Visualization observer readout
Local Sidereal Time
04:09:49
Azimuth
Unknown
Elevation
Unknown
Doppler factor
Unknown
Orbital elements
Apogee altitude
394.468 km
Perigee altitude
380.121 km
Semi-major axis
6,765.431 km
Eccentricity
0.00106
Inclination
41.4665°
RAAN
287.2021°
Arg. of periapsis
303.7055°
True anomaly
56.37843°
Mean anomaly
56.2773°
Eccentric anomaly
56.32786°
Mean motion
3.90032 °/min
Orbital period
92.3 mins
BSTAR
0.00047775
Loading maneuver chart data...
Computing Atmospheric mass density...
Loading historical data...
Loading historical data...
Loading historical data...
Loading historical data...
Loading historical data...
Loading historical data...
Loading historical data...
Other satellites on launch #82 in the year 2025 (2025-04-24 UTC)

Documentation

Showing up to 5 results
|